Flag for U.S.A. Weather past 2 weeks in Houston, Texas, U.S.A.

Now
70 °F

Scattered clouds.


Feels Like: 68 °F
Forecast: 67 / 84 °F
Wind: 5 mph from Southeast

Location: Houston Hobby Airport


UV Index: 0 (Low)

Visibility: 10 mi


Pressure: 29.88 "Hg

Humidity: 87%

Dew point: 66 °F

Location of HoustonLocation

Historic Weather in Houston

°F

Houston temperature yesterday

Maximum temperature yesterday: 82 °F (at 1:53 PM)
Minimum temperature yesterday: 64 °F (at 7:03 AM)
Average temperature yesterday: 72 °F

Past Weeks' High & Low Weather Summary

 TemperatureHumidityPressure
High82 °F (Apr 22, 3:53 PM)100% (Apr 20, 6:53 AM)30.32 "Hg (Apr 20, 6:53 AM)
Low43 °F (Apr 15, 6:53 AM)26% (Apr 15, 4:53 PM)29.72 "Hg (Apr 14, 4:53 AM)
Average67 °F72%30.06 "Hg
* Reported Apr 9 6:53 AM — Apr 24 6:53 AM, Houston, Weather by CustomWeather, © 2014

Note: Actual official high and low records may vary slightly from our data, if they occured in-between our weather recording intervals... More about our weather records

Advertising

Historic Weather Conditions — Data for Previous 24 hours

 ConditionsComfort  
Time TempWeatherWind HumidityBarometerVisibility
6:53 AM
Apr 24
70 °FPassing clouds.6 mph84%29.87 "Hg10 mi
5:53 AM70 °FOvercast.7 mph87%29.84 "Hg10 mi
4:53 AM69 °FPassing clouds.5 mph90%29.84 "Hg10 mi
3:53 AM69 °FPassing clouds.8 mph87%29.83 "Hg10 mi
2:53 AM69 °FPassing clouds.6 mph87%29.85 "Hg10 mi
1:53 AM70 °FPassing clouds.7 mph84%29.86 "Hg10 mi
12:53 AM69 °FPassing clouds.7 mph90%29.88 "Hg10 mi
11:53 PM
Apr 23
69 °FPassing clouds.9 mph90%29.88 "Hg10 mi
10:53 PM69 °FPassing clouds.9 mph90%29.89 "Hg10 mi
9:53 PM70 °FPassing clouds.9 mph84%29.89 "Hg10 mi
8:53 PM71 °FPassing clouds.9 mph81%29.88 "Hg10 mi
7:53 PM72 °FPassing clouds.12 mph78%29.86 "Hg10 mi
6:53 PM76 °FScattered clouds.8 mph69%29.85 "Hg10 mi
5:53 PM78 °FScattered clouds.12 mph62%29.86 "Hg10 mi
4:53 PM81 °FScattered clouds.12 mph58%29.87 "Hg10 mi
3:53 PM81 °FScattered clouds.14 mph56%29.88 "Hg10 mi
2:53 PM82 °FScattered clouds.10 mph53%29.90 "Hg10 mi
1:53 PM82 °FScattered clouds.12 mph55%29.93 "Hg10 mi
12:53 PM80 °FScattered clouds.9 mph60%29.95 "Hg10 mi
11:53 AM78 °FScattered clouds.9 mph66%29.98 "Hg10 mi
10:53 AM74 °FScattered clouds.7 mph82%29.99 "Hg10 mi
9:53 AM68 °FFog.6 mph96%30.00 "Hg1 mi
8:53 AM67 °FFog.3 mph100%29.98 "Hg1 mi
Weather by CustomWeather, © 2014

See weather overview